Location: Les Andrieux
(44.2223°N, 6.0009°E)
Time: 20:13:25
(UTC+00:00)

Daily predictions for brighter satellites

Satellite Brightness Start Highest point End
(mag) Time Altitude Azimuth Time Altitude Azimuth Time Altitude Azimuth
ADEOS Rocket 4.3 17:37:29 10° N 17:42:40 43° WNW 17:48:05 10° SW
IRS-1C Rocket 4.1 17:38:09 10° SSE 17:43:24 85° ENE 17:48:41 10° NNW
NOAA 11 4.5 17:39:30 10° S 17:45:00 77° WSW 17:50:31 10° NNW
RESURS DK-1 4.0 17:43:01 10° SE 17:45:30 16° ESE 17:48:01 10° ENE
ATLAS 2AS CENTAUR R/B 3.1 17:38:00 10° SSW 17:45:49 65° ESE 17:53:38 10° NE
CZ-2D R/B 3.3 17:44:41 10° SSE 17:48:30 61° ENE 17:52:21 10° N
Cosmos 1939 Rocket 3.0 17:46:52 10° SSE 17:51:01 88° ENE 17:55:10 10° NNW
Cosmos 1269 Rocket 4.3 17:46:31 10° N 17:51:40 48° ENE 17:56:47 10° SE
Cosmos 2082 Rocket 3.6 17:49:09 10° N 17:53:18 21° NE 17:57:27 10° E
Cosmos 1464 Rocket 4.1 17:52:15 10° S 17:58:24 86° W 18:04:41 10° N
Cosmos 1092 Rocket 4.4 17:52:45 10° N 17:58:36 42° ENE 18:04:28 10° SE
BREEZE-M DEB (TANK) 2.6 17:56:58 10° WNW 17:59:42 81° SSW 18:07:11 10° ESE
PSLV R/B 4.2 17:56:56 10° N 18:01:09 76° WNW 18:05:21 10° SSW
COSMOS 2455 3.9 17:57:02 10° SSE 18:01:35 23° ESE 18:06:09 10° ENE
Cosmos 1844 Rocket 3.7 17:57:11 10° SW 18:02:34 49° WNW 18:08:01 10° NNE
Okean-O 2.6 17:58:13 10° SSE 18:02:39 83° ENE 18:07:06 10° NNW
COSMO-SKYMED 1 2.9 17:58:33 10° N 18:02:53 70° WNW 18:07:12 10° SSW
Cosmos 2151 Rocket 3.8 17:59:55 10° S 18:04:24 81° W 18:08:57 10° N
CZ-2C R/B 3.4 17:59:03 10° SSE 18:04:26 56° ENE 18:10:03 10° N
H-2A R/B 2.4 18:01:35 10° SE 18:06:20 42° ENE 18:11:14 10° N
Cosmos 1689 Rocket 3.9 18:03:59 10° N 18:06:44 35° WNW 18:09:28 10° SW
Cosmos 2285 Rocket 4.2 18:07:09 10° SSW 18:13:28 81° WNW 18:19:53 10° NNE
Meteor 2-13 Rocket 4.5 18:08:04 10° N 18:14:10 60° ENE 18:20:11 10° SSE
KORONAS-FOTON 3.8 18:10:43 10° N 18:14:39 81° E 18:18:33 10° S
Cosmos 1025 Rocket 4.2 18:13:11 10° NNW 18:17:25 47° W 18:21:37 10° SSW
ISS -2.2 18:16:13 10° NW 18:19:08 26° NNE 18:21:09 16° ENE
Cosmos 1805 3.1 18:15:55 10° S 18:19:48 76° E 18:23:44 10° NNE
Cosmos 2278 Rocket 2.3 18:17:02 10° S 18:22:29 51° ESE 18:27:57 10° NE
Gbstr 26 Del rocket 4.3 18:16:29 10° SW 18:22:47 57° SE 18:30:17 10° ENE
CSL-04 Rocket 3.7 18:24:33 10° SSE 18:30:02 79° ENE 18:35:36 10° NNW
HJ-1C 3.3 18:26:54 10° SSE 18:30:10 65° ENE 18:33:28 10° N
Okean 1 Rocket 3.1 18:26:26 10° S 18:30:55 90° SE 18:35:26 10° N
Cosmos 1833 Rocket 2.8 18:26:09 10° NNW 18:31:46 59° ENE 18:36:36 14° SE
Nadezhda 4 Rocket 4.3 18:26:35 10° NNW 18:32:39 68° W 18:38:45 10° S
Cosmos 2251 Rocket 4.3 18:28:21 10° N 18:33:10 33° ENE 18:35:38 22° ESE
CSL-04 Debris 4.2 18:30:26 10° SSE 18:35:49 89° WSW 18:41:16 10° NNW
Cosmos 1340 Rocket 2.8 18:32:03 10° S 18:35:58 60° E 18:39:56 10° NNE
Okean 1-7 Rocket 4.4 18:32:48 10° NNE 18:36:51 30° ENE 18:38:11 26° ESE
COSMOS 2406 3.2 18:32:26 10° NNW 18:38:09 87° ENE 18:43:50 10° SSE
YAOGAN 1 3.4 18:36:26 10° S 18:40:39 52° W 18:44:54 10° NNW
Lacrosse 4 Rocket 1.5 18:39:38 10° NNW 18:43:39 52° ENE 18:45:15 32° ESE
Cosmos 1674 4.1 18:41:16 10° NNW 18:44:52 40° W 18:48:26 10° SSW
Lacrosse 5 rocket 2.4 18:41:16 10° NW 18:45:23 36° NNE 18:46:58 27° ENE
CZ-4C R/B 2.1 18:43:05 10° SSW 18:47:45 49° ESE 18:53:14 10° NE
CZ-4 R/B 3.4 18:50:08 10° SSW 18:53:49 30° W 18:57:29 10° NW
Shenzhou-11 Module 3.6 18:53:34 10° W 18:54:23 18° WSW 18:54:23 18° WSW
ARGOS 3.1 18:52:24 10° SSE 18:57:46 89° ENE 19:03:12 10° NNW
OE (NEXTSAT) 4.5 18:55:09 10° W 18:58:37 67° N 18:59:13 53° NE
Cosmos 1892 Rocket 3.4 18:55:02 10° N 18:59:23 69° E 19:01:33 29° SSE
APEX 2.8 18:58:47 10° SSW 19:01:59 72° ESE 19:03:27 34° NE
Meteor 1-24 Rocket 3.9 18:56:25 10° NNW 19:02:08 80° W 19:08:03 10° S
MOS 1 Rocket 3.3 18:58:39 10° N 19:02:55 68° WNW 19:07:11 10° SSW
CZ-2C R/B 2.8 18:57:33 10° NNE 19:03:04 54° E 19:08:33 10° S
USA 186 2.0 19:04:01 55° NNE 19:04:01 55° NNE 19:06:48 10° N
Cosmos 1626 2.7 19:01:32 10° NNW 19:05:10 55° W 19:08:28 12° S
MOS 1 4.4 19:03:08 30° SE 19:05:48 57° ENE 19:11:23 10° N
Ariane Rocket 2.9 19:06:14 33° SE 19:08:26 66° ENE 19:13:31 10° N
Cosmos 1470 2.6 19:08:01 61° SE 19:08:28 68° E 19:12:19 10° NNE
Resurs 01 Rocket 3.4 19:10:02 18° NE 19:10:02 18° NE 19:11:51 10° NNE
SL-14 R/B 3.9 19:07:19 10° NNW 19:11:15 58° W 19:14:31 14° S
SL-8 R/B 3.6 19:11:19 10° WSW 19:16:06 81° SSE 19:17:03 58° E
MetOp-A 4.0 19:16:54 44° SE 19:18:33 67° ENE 19:23:52 10° N
Cosmos 2098 Rocket 3.6 19:13:22 10° N 19:19:09 51° ENE 19:19:21 51° E
RESURS DK-1 3.2 19:19:05 10° SW 19:23:06 50° WNW 19:27:11 10° NNE
Milstar 3 Cent rocket 4.1 19:17:45 10° WSW 19:23:32 20° SSW 19:25:27 17° S
SL-08 RB Rocket 4.0 19:23:00 29° S 19:25:15 66° W 19:29:45 10° NNW
ATLAS 3B R/B 3.2 19:20:34 10° NW 19:27:21 59° WSW 19:31:52 23° S
Meteor 2-10 3.9 19:35:06 49° S 19:36:34 79° E 19:41:52 10° NNE
ATLAS 2AS CENTAUR R/B 4.2 19:29:55 10° WSW 19:37:19 40° NW 19:44:35 10° NNE
Cosmos 1461 3.6 19:32:37 10° NNW 19:36:42 53° NNE 19:36:42 53° NNE
Cosmos 2082 Rocket 2.3 19:32:22 10° NNW 19:38:00 74° WSW 19:39:28 50° S
H-2A R/B 4.1 19:41:45 10° SSW 19:45:55 25° W 19:50:12 10° NW
COSMOS 2455 3.2 19:41:00 10° SW 19:46:59 65° NW 19:53:01 10° NNE
Cosmos 1455 Rocket 4.0 19:42:54 10° SSW 19:47:07 46° WNW 19:51:20 10° N
SJ-6B 4.1 19:50:50 38° WNW 19:50:50 38° WNW 19:53:42 10° NNW
OBJECT-B 3.8 19:55:53 12° NNW 19:55:53 12° NNW 19:56:13 10° NNW
ISS -1.1 19:52:56 10° WNW 19:54:07 20° WNW 19:54:07 20° WNW
Meteor 1-21 Rocket 4.2 19:52:23 10° N 19:58:16 88° W 19:58:18 88° SW
Cosmos 1655 Rocket 4.1 19:56:32 10° NNW 20:02:50 72° W 20:04:14 55° SSW
Cosmos 2278 Rocket 4.1 20:02:04 10° WSW 20:06:50 28° NW 20:11:40 10° N
Cosmos 909 Rocket 4.3 20:04:07 10° NW 20:10:18 59° WSW 20:10:59 56° SW
Lacrosse 4 Rocket 4.0 20:19:29 10° WNW 20:21:36 15° W 20:21:36 15° W
Lacrosse 5 rocket 3.5 20:20:22 10° WNW 20:22:36 27° WNW 20:22:36 27° WNW
CZ-4C R/B 3.7 20:31:51 10° W 20:36:29 32° NW 20:41:57 10° NNE
Resurs 01 Rocket 4.2 20:47:37 18° NW 20:47:37 18° NW 20:48:56 10° NNW
